World > North America > United States > New York

Hourly Steuben, NY Regional Weather

Feedback E-mail the Weather

Quick WX

Steuben, NY Weather Maps

°F °C°F °C
Steuben Weather Map
UTC Time: 7/1/2022, 08:53
Your Time:

Steuben, NY Regional Weather

Expires:202207010900;;482991
ASUS41 KBGM 010810
RWRBGM

REGIONAL WEATHER ROUNDUP
NATIONAL WEATHER SERVICE BINGHAMTON NY
400 AM EDT FRI JUL 01 2022

Note: "fair" indicates few or no clouds below 12,000 feet with no
significant weather and/or obstructions to visibility.

* = Station(s) that does not report precipitation, such as rain, 
snow, etc, also no thunder or fog.


NYZ009-015>018-022>025-036-037-044>046-055>057-062-010900
...Central New York...
  
CITY           SKY/WX    TMP DP  RH WIND       PRES   REMARKS
Binghamton     PTCLDY    66  54  65 S6        30.09F                  
Cortland       FAIR      61  55  82 CALM      30.06F                  
Dansville      CLEAR     64  55  72 SE6       30.02F                  
Elmira         PTCLDY    57  55  93 CALM      30.05F                  
Endicott       SUNNY     59  59 100 CALM      30.07F                  
Ithaca         PTCLDY    66  55  67 S7        30.06F                  
Hamilton       CLEAR     63  54  72 NE6       30.06F                  
Monticello     CLEAR     58  58 100 CALM      30.13F                  
Norwich        CLEAR     59  57  94 S5        30.10F                  
Oneonta        CLEAR     66  54  63 SW5       30.11F                  
Penn Yan       CLEAR     69  57  65 S8        30.03F                  
Rome           PTCLDY    64  58  80 E5        30.02F                  
Seneca Falls   SUNNY     70  54  56 S10       30.00F                  
Sidney         CLEAR     57  57 100 CALM      30.08F                  
Skaneateles    FAIR      70  57  64 VRB6G14   30.02F                  
Syracuse       PTCLDY    75  54  47 SW9       29.99F                  
$$
 

SKY/WX - Weather  TMP - Temperature  DP - Dew Point  RH - Humidity
WIND - Wind Direction/Speed PRES - Barometric Pressure VSB - Visibility
WCI - Wind Chill Index E13G22 Wind - East Wind 13 mph/Gusts of 22 mph

Trending Headlines

Steuben Radar Loop



Steuben Quick Facts


National Two Day Weather Forecast


E-mail the Steuben Weather Forecast

Voice your opinion or tell us about page issues...